Weather History for KGBG - August, 2013

Change the Weather History Date:

Friday, August 23, 2013

  Actual Average Record
Temperature  
Mean Temperature 70 °F -  
Max Temperature 83 °F 80 °F 102 °F (2005)
Min Temperature 58 °F 62 °F 48 °F (1966)
Cooling Degree Days 6    
Growing Degree Days 20 (Base 50)    
Moisture  
Dew Point 65 °F    
Average Humidity 79    
Maximum Humidity 100    
Minimum Humidity 51    
Precipitation  
Precipitation 0.00 in - - ()
Sea Level Pressure  
Sea Level Pressure 30.13 in    
Wind  
Wind Speed 3 mph (East)    
Max Wind Speed 8 mph    
Max Gust Speed -    
Visibility 8 miles    
Events Fog    
Averages and records for this station are not official NWS values.
T = Trace of Precipitation, MM = Missing Value Source: NWS Daily Summary

Daily Weather History Graph

Daily Weather History Graph

Search for Another Location

Airport or City:

Trip Planner

Search our weather history database for the weather conditions in past years. The results will help you decide how hot, cold, wet, or windy it might be!

Date:

Astronomy

Aug. 23, 2013 Rise Set
Actual Time 6:19 AM CDT 7:47 PM CDT
Civil Twilight 5:51 AM CDT 8:16 PM CDT
Nautical Twilight 5:16 AM CDT 8:51 PM CDT
Astronomical Twilight 4:39 AM CDT 9:27 PM CDT
Moon 9:04 PM CDT (8/23) 9:17 AM CDT (8/23)
Length of Visible Light 14h 25m
Length of Day
13h 28m
Waning Gibbous, 91% of the Moon is Illuminated
Aug 23
Waning Gibbous
Aug 28
Last Quarter
Sep 5
New
Sep 12
First Quarter
Sep 19
Full

Hourly Weather History & Observations

Time (CDT) Temp. Heat Index Dew Point Humidity Pressure Visibility Wind Dir Wind Speed Gust Speed Precip Events Conditions
12:15 AM 69.8 °F - 66.7 °F 90% 30.11 in 10.0 mi East 3.5 mph - N/A   Overcast
12:35 AM 69.1 °F - 66.6 °F 92% 30.12 in 10.0 mi Calm Calm - N/A   Overcast
12:55 AM 68.4 °F - 66.4 °F 93% 30.12 in 10.0 mi East 3.5 mph - N/A   Overcast
1:15 AM 68.0 °F - 66.6 °F 95% 30.12 in 10.0 mi Calm Calm - N/A   Overcast
1:35 AM 67.1 °F - 66.6 °F 98% 30.11 in 10.0 mi Calm Calm - N/A   Scattered Clouds
1:55 AM 66.7 °F - 66.6 °F 99% 30.11 in 10.0 mi Calm Calm - N/A   Clear
2:15 AM 66.2 °F - 66.2 °F 100% 30.10 in 10.0 mi Calm Calm - N/A   Clear
2:35 AM 65.3 °F - 65.3 °F 100% 30.10 in 10.0 mi Calm Calm - N/A   Clear
2:55 AM 64.8 °F - 64.8 °F 100% 30.10 in 4.0 mi Calm Calm - N/A   Clear
3:15 AM 64.0 °F - 64.0 °F 100% 30.11 in 0.5 mi Calm Calm - N/A Fog Fog
3:35 AM 63.5 °F - 63.5 °F 100% 30.11 in 0.2 mi Calm Calm - N/A Fog Fog
3:55 AM 62.6 °F - 62.6 °F 100% 30.11 in 0.5 mi Calm Calm - N/A Fog Fog
4:15 AM 61.9 °F - 61.9 °F 100% 30.12 in 0.2 mi Calm Calm - N/A Fog Fog
4:35 AM 60.3 °F - 60.3 °F 100% 30.12 in 0.2 mi Calm Calm - N/A Fog Fog
4:55 AM 59.5 °F - 59.5 °F 100% 30.12 in 0.2 mi Calm Calm - N/A Fog Fog
5:15 AM 59.5 °F - 59.5 °F 100% 30.12 in 0.2 mi Calm Calm - N/A Fog Fog
5:35 AM 59.4 °F - 59.4 °F 100% 30.13 in 5.0 mi Calm Calm - N/A   Overcast
5:55 AM 59.7 °F - 59.7 °F 100% 30.13 in 7.0 mi Calm Calm - N/A   Overcast
6:15 AM 59.2 °F - 59.2 °F 100% 30.14 in 4.0 mi Calm Calm - N/A   Overcast
6:35 AM 58.3 °F - 58.3 °F 100% 30.14 in 0.5 mi Calm Calm - N/A Fog Fog
6:55 AM 59.9 °F - 59.9 °F 100% 30.15 in 5.0 mi North 4.6 mph - N/A   Overcast
7:15 AM 61.2 °F - 61.2 °F 100% 30.15 in 0.2 mi NE 3.5 mph - N/A Fog Fog
7:35 AM 64.2 °F - 64.2 °F 100% 30.15 in 0.2 mi NNE 3.5 mph - N/A Fog Fog
7:55 AM 65.8 °F - 65.8 °F 100% 30.15 in 3.0 mi NNE 3.5 mph - N/A   Scattered Clouds
8:15 AM 66.6 °F - 66.6 °F 100% 30.15 in 7.0 mi NNE 3.5 mph - N/A   Clear
8:35 AM 68.0 °F - 68.0 °F 100% 30.16 in 10.0 mi NE 3.5 mph - N/A   Clear
8:55 AM 70.9 °F - 68.4 °F 92% 30.15 in 10.0 mi NE 4.6 mph - N/A   Clear
9:15 AM 72.1 °F - 68.5 °F 88% 30.16 in 10.0 mi NE 4.6 mph - N/A   Clear
9:35 AM 73.9 °F - 69.1 °F 85% 30.16 in 10.0 mi NNE 4.6 mph - N/A   Scattered Clouds
9:55 AM 75.2 °F - 69.4 °F 82% 30.16 in 10.0 mi NE 6.9 mph - N/A   Scattered Clouds
10:15 AM 76.5 °F - 68.2 °F 75% 30.16 in 10.0 mi ENE 6.9 mph - N/A   Clear
10:35 AM 77.5 °F - 69.3 °F 76% 30.16 in 10.0 mi East 5.8 mph - N/A   Scattered Clouds
10:55 AM 77.9 °F - 68.7 °F 73% 30.16 in 10.0 mi East 3.5 mph - N/A   Scattered Clouds
11:15 AM 79.0 °F - 68.0 °F 69% 30.16 in 10.0 mi East 5.8 mph - N/A   Clear
11:35 AM 79.5 °F - 67.6 °F 67% 30.15 in 10.0 mi East 5.8 mph - N/A   Clear
11:55 AM 80.4 °F 83.0 °F 67.8 °F 65% 30.15 in 10.0 mi East 8.1 mph - N/A   Clear
12:15 PM 80.8 °F 83.2 °F 67.3 °F 63% 30.15 in 10.0 mi East 6.9 mph - N/A   Clear
12:35 PM 81.3 °F 84.0 °F 67.8 °F 63% 30.15 in 10.0 mi East 5.8 mph - N/A   Clear
12:55 PM 82.0 °F 84.7 °F 67.5 °F 61% 30.15 in 10.0 mi ESE 4.6 mph - N/A   Scattered Clouds
1:15 PM 81.9 °F 84.2 °F 66.6 °F 60% 30.14 in 10.0 mi East 5.8 mph - N/A   Scattered Clouds
1:35 PM 82.4 °F 85.2 °F 67.6 °F 61% 30.14 in 10.0 mi East 6.9 mph - N/A   Clear
1:55 PM 82.4 °F 84.8 °F 66.7 °F 59% 30.14 in 10.0 mi ESE 3.5 mph - N/A   Clear
2:15 PM 82.9 °F 84.8 °F 65.1 °F 55% 30.14 in 10.0 mi East 6.9 mph - N/A   Clear
2:35 PM 82.4 °F 84.8 °F 66.9 °F 59% 30.13 in 10.0 mi NE 4.6 mph - N/A   Clear
2:55 PM 82.9 °F 85.8 °F 67.6 °F 60% 30.13 in 10.0 mi East 4.6 mph - N/A   Clear
3:15 PM 83.1 °F 85.2 °F 66.0 °F 56% 30.13 in 10.0 mi East 8.1 mph - N/A   Clear
3:35 PM 83.1 °F 84.8 °F 65.1 °F 54% 30.12 in 10.0 mi ESE 5.8 mph - N/A   Clear
3:55 PM 83.3 °F 84.8 °F 64.6 °F 53% 30.12 in 10.0 mi ESE 6.9 mph - N/A   Clear
4:15 PM 83.7 °F 84.9 °F 63.5 °F 51% 30.11 in 10.0 mi East 6.9 mph - N/A   Clear
4:35 PM 82.9 °F 84.6 °F 64.6 °F 54% 30.11 in 10.0 mi ESE 4.6 mph - N/A   Clear
4:55 PM 82.9 °F 84.8 °F 65.3 °F 55% 30.11 in 10.0 mi East 4.6 mph - N/A   Clear
5:15 PM 82.4 °F 84.2 °F 65.5 °F 56% 30.11 in 10.0 mi East 5.8 mph - N/A   Clear
5:35 PM 81.7 °F 83.6 °F 65.7 °F 58% 30.11 in 10.0 mi East 6.9 mph - N/A   Clear
5:55 PM 81.5 °F 83.7 °F 66.2 °F 60% 30.11 in 10.0 mi East 6.9 mph - N/A   Clear
6:15 PM 81.0 °F 83.2 °F 66.4 °F 61% 30.10 in 10.0 mi East 5.8 mph - N/A   Clear
6:35 PM 79.9 °F - 66.2 °F 63% 30.10 in 10.0 mi East 5.8 mph - N/A   Clear
6:55 PM 79.0 °F - 65.3 °F 63% 30.10 in 10.0 mi East 6.9 mph - N/A   Clear
7:15 PM 77.9 °F - 64.9 °F 64% 30.10 in 10.0 mi East 6.9 mph - N/A   Clear
7:35 PM 76.3 °F - 64.4 °F 67% 30.10 in 10.0 mi East 4.6 mph - N/A   Clear
7:55 PM 74.8 °F - 64.2 °F 69% 30.11 in 10.0 mi East 4.6 mph - N/A   Clear
8:15 PM 73.8 °F - 63.7 °F 71% 30.11 in 10.0 mi East 3.5 mph - N/A   Clear
8:35 PM 73.0 °F - 63.7 °F 72% 30.12 in 10.0 mi East 3.5 mph - N/A   Clear
8:55 PM 72.0 °F - 63.5 °F 75% 30.14 in 10.0 mi East 3.5 mph - N/A   Clear
9:15 PM 71.6 °F - 63.7 °F 76% 30.14 in 10.0 mi East 3.5 mph - N/A   Clear
9:35 PM 71.1 °F - 63.5 °F 77% 30.15 in 10.0 mi East 4.6 mph - N/A   Clear
9:55 PM 70.7 °F - 63.5 °F 78% 30.15 in 10.0 mi East 4.6 mph - N/A   Clear
10:15 PM 70.2 °F - 63.5 °F 79% 30.14 in 10.0 mi East 4.6 mph - N/A   Clear
10:35 PM 70.0 °F - 63.3 °F 79% 30.14 in 10.0 mi East 5.8 mph - N/A   Clear
10:55 PM 69.3 °F - 63.5 °F 82% 30.14 in 10.0 mi East 5.8 mph - N/A   Clear
11:15 PM 68.4 °F - 63.3 °F 84% 30.14 in 10.0 mi East 3.5 mph - N/A   Clear
11:35 PM 67.6 °F - 63.0 °F 85% 30.14 in 10.0 mi East 3.5 mph - N/A   Clear
11:55 PM 67.3 °F - 62.8 °F 85% 30.15 in 10.0 mi East 3.5 mph - N/A   Clear